Regional Weather Roundup
Issued by NWS Green Bay, WI

Home | Current Version | Previous Version | Text Only | Print | Product List | Glossary On
Versions: 1 2 3 4 5 6 7 8 9 10 11 12 13 14 15 16 17 18 19 20 21 22 23 24 25 26 27 28 29 30 31 32 33 34 35 36 37 38 39 40 41 42 43 44 45 46 47 48 49 50
000
ASUS43 KGRB 190910
RWRGRB

NORTH-CENTRAL AND NORTHEAST WISCONSIN REGIONAL WEATHER ROUNDUP
NATIONAL WEATHER SERVICE GREEN BAY WI
400 AM CDT SUN APR 19 2015

WIZ005-009-010>012-018-019-191000-
NORTH CENTRAL WISCONSIN

CITY           SKY/WX    TMP DP  RH WIND       PRES   REMARKS
IRONWOOD       CLOUDY    46  30  53 CALM      29.93R
MANITOWISH WTR CLOUDY    44  27  50 S9        29.94S
ARBOR VITAE    CLOUDY    44  27  51 SE10G16   29.94S HAZE
EAGLE RIVER    CLOUDY    41  25  52 SE9       29.95F
LAND O LAKES   MOCLDY    42  26  53 SE12      29.96F
RHINELANDER    MOCLDY    43  26  51 SE10      29.95F
PHILLIPS       CLOUDY    48  28  45 SE7       29.93F
ANTIGO         MOCLDY    41  26  57 SE15G25   29.95F
TOMAHAWK       CLOUDY    45  25  44 CALM      29.96R
MERRILL        MOCLDY    47  24  40 CALM      29.96R
$$

WIZ013-073-191000-
NORTHEAST WISCONSIN

CITY           SKY/WX    TMP DP  RH WIND       PRES   REMARKS
IRON MOUNTAIN  CLOUDY    40  26  57 SE6       30.02F
MARINETTE      PTCLDY    41  28  60 E8        30.02F
OCONTO         PTCLDY    43  27  53 SE6       30.01F
$$

WIZ017-030-035>037-045-191000-
CENTRAL WISCONSIN

CITY           SKY/WX    TMP DP  RH WIND       PRES   REMARKS
MEDFORD        RAIN      42  33  71 E7        29.92F
WAUSAU         CLOUDY    46  23  40 SE13      29.93F
MOSINEE        CLOUDY    45  23  42 SE7       29.95R
MARSHFIELD     CLOUDY    46  34  62 E8        29.91F
WISC RAPIDS    CLOUDY    48  24  39 E8        29.92F
STEVENS POINT  CLOUDY    45  24  44 E14       29.93F
WAUPACA        CLOUDY    47  26  44 E6        29.96F
SHAWANO        MOCLDY    44  32  63 E8        29.99F
CLINTONVILLE   CLOUDY    43  30  61 E7        29.97F
$$

WIZ038-039-048-051-191000-
FOX VALLEY

CITY           SKY/WX    TMP DP  RH WIND       PRES   REMARKS
NWS GREEN BAY  PTCLDY    46  25  43 E8        29.99F
APPLETON       MOCLDY    46  21  36 E12G17    29.96F
OSHKOSH        MOCLDY    50  25  37 SE10      29.94F
FOND DU LAC    MOCLDY    49  25  39 SE18G25   29.94F
$$

WIZ022-050-052-191000-
EAST CENTRAL WISCONSIN

CITY           SKY/WX    TMP DP  RH WIND       PRES   REMARKS
STURGEON BAY   PTCLDY    43  25  49 E9        30.04F
MANITOWOC      PTCLDY    40  30  67 E5        30.01F
SHEBOYGAN      MOCLDY    44  29  55 SE6       30.00F
$$

LMZ563-521-522-541>543-191000-
LAKESHORE

STATION/POSITION TIME  TEMP    WIND        PRES    VSBY  WAVE
                       AIR SEA DIR/SP/G                  HT/PER
                 (UTC) (F)     (DEG/KT/KT) (MB)    (MI)  (FT/S)
SHEBOYGAN LKSHOR 0900   43     150/  5/  7 1016.5F
KEWAUNEE LKSHORE 0900   42      70/  3/  6 1015.7S
NORTHPORT PIER   0900   40     100/ 10/ 11 1017.6F
SISTER BAY LKSHO 0800   43     110/ 10/ 16   N/A
CHAMBERS ISLAND  0900   42      CALM  /  6 1017.6R
MENOMINEE LKSHOR 0900   43      60/  8/  9 1017.4F
$$



USA.gov is the U.S. government's official web portal to all federal, state and local government web resources and services.